Private Wetterstation Wechselburg
Wetterdaten: Donnerstag, 14.01.2016
Datum Zeit Temp. +2m Bodentemp. Temp.+5cm Temp. Wind Windchill X Diff Temp. Feuchte +2m Feuchte +5cm Sonnenschein Luftdruck Regen Wind Richtung Richtung Sonnenschein Taupunkt Windchill Windben
14.01.2016 00:00 -1,7 C 23,0 C -0,7 C -1,3 C -1,3 C 0,4 C 88 % 79 % 0 % 1014,9 hPa 0,0 l/m 1,6 km/h (1 Bft) O 90 0 min -3,4 C -1,3 C 0,0 km/h (0 Bft)
14.01.2016 00:05 -1,7 C 23,0 C -0,7 C -1,3 C -1,3 C 0,4 C 88 % 79 % 0 % 1014,9 hPa 0,0 l/m 1,3 km/h (1 Bft) N-NO 22 0 min -3,4 C -1,3 C 0,0 km/h (0 Bft)
14.01.2016 00:10 -1,7 C 23,0 C -0,7 C -1,3 C -1,3 C 0,4 C 88 % 79 % 0 % 1015,1 hPa 0,0 l/m 0,0 km/h (0 Bft) S-SW 202 0 min -3,4 C -1,3 C 0,0 km/h (0 Bft)
14.01.2016 00:15 -1,7 C 23,0 C -0,7 C -1,3 C -1,3 C 0,4 C 88 % 78 % 0 % 1015,1 hPa 0,0 l/m 0,0 km/h (0 Bft) NO 45 0 min -3,4 C -1,3 C 0,0 km/h (0 Bft)
14.01.2016 00:20 -1,7 C 23,0 C -0,5 C -1,3 C -1,3 C 0,4 C 88 % 78 % 0 % 1015,1 hPa 0,0 l/m 0,0 km/h (0 Bft) NO 45 0 min -3,4 C -1,3 C 0,0 km/h (0 Bft)
14.01.2016 00:25 -1,7 C 23,0 C -0,5 C -1,3 C -1,3 C 0,4 C 88 % 78 % 0 % 1015,1 hPa 0,0 l/m 0,0 km/h (0 Bft) O-SO 112 0 min -3,4 C -1,3 C 0,0 km/h (0 Bft)
14.01.2016 00:30 -1,7 C 22,9 C -0,4 C -1,2 C -1,2 C 0,5 C 88 % 77 % 0 % 1015,1 hPa 0,0 l/m 0,0 km/h (0 Bft) S 180 0 min -3,4 C -1,2 C 0,0 km/h (0 Bft)
14.01.2016 00:35 -1,6 C 22,9 C -0,3 C -1,0 C -1,0 C 0,6 C 88 % 77 % 0 % 1015,1 hPa 0,0 l/m 0,5 km/h (0 Bft) SW 225 0 min -3,3 C -1,0 C 4,3 km/h (1 Bft)
14.01.2016 00:41 -1,3 C 22,9 C -0,1 C -0,7 C -0,7 C 0,6 C 88 % 77 % 0 % 1015,1 hPa 0,0 l/m 1,6 km/h (1 Bft) N 0 0 min -3,0 C -0,7 C 0,0 km/h (0 Bft)
14.01.2016 00:50 -1,1 C 22,9 C 0,1 C -0,3 C -0,3 C 0,8 C 88 % 77 % 0 % 1014,9 hPa 0,0 l/m 1,6 km/h (1 Bft) S-SW 202 0 min -2,8 C -0,3 C 5,6 km/h (1 Bft)
14.01.2016 00:55 -1,0 C 23,0 C 0,3 C -0,1 C -0,1 C 0,9 C 88 % 77 % 0 % 1014,9 hPa 0,0 l/m 2,1 km/h (1 Bft) S-SW 202 0 min -2,7 C -0,1 C 2,3 km/h (1 Bft)
14.01.2016 01:00 -0,9 C 23,0 C 0,3 C 0,0 C 0,0 C 0,9 C 88 % 77 % 0 % 1014,9 hPa 0,0 l/m 1,6 km/h (1 Bft) O 90 0 min -2,6 C 0,0 C 1,9 km/h (1 Bft)
14.01.2016 01:05 -0,8 C 23,0 C 0,3 C 0,1 C 0,1 C 0,9 C 88 % 77 % 0 % 1014,9 hPa 0,0 l/m 0,6 km/h (0 Bft) S-SW 202 0 min -2,5 C 0,1 C 1,6 km/h (1 Bft)
14.01.2016 01:10 -0,7 C 22,9 C 0,4 C 0,1 C 0,1 C 0,8 C 88 % 77 % 0 % 1014,8 hPa 0,0 l/m 0,6 km/h (0 Bft) S 180 0 min -2,4 C 0,1 C 2,4 km/h (1 Bft)
14.01.2016 01:15 -0,7 C 23,0 C 0,4 C 0,1 C 0,1 C 0,8 C 89 % 77 % 0 % 1014,8 hPa 0,0 l/m 2,1 km/h (1 Bft) S-SO 157 0 min -2,3 C 0,1 C 5,6 km/h (1 Bft)
14.01.2016 01:20 -0,5 C 23,0 C 0,4 C -0,4 C -0,4 C 0,1 C 89 % 77 % 0 % 1014,8 hPa 0,0 l/m 3,4 km/h (1 Bft) S 180 0 min -2,1 C -0,4 C 6,6 km/h (2 Bft)
14.01.2016 01:25 -0,5 C 23,0 C 0,4 C -0,2 C -0,2 C 0,3 C 89 % 77 % 0 % 1014,8 hPa 0,0 l/m 2,9 km/h (1 Bft) N-NO 22 0 min -2,1 C -0,2 C 0,0 km/h (0 Bft)
14.01.2016 01:30 -0,5 C 23,0 C 0,4 C 0,2 C 0,2 C 0,7 C 89 % 77 % 0 % 1014,7 hPa 0,0 l/m 1,1 km/h (1 Bft) W 270 0 min -2,1 C 0,2 C 0,0 km/h (0 Bft)
14.01.2016 01:35 -0,5 C 23,0 C 0,4 C 0,2 C 0,2 C 0,7 C 89 % 77 % 0 % 1014,7 hPa 0,0 l/m 0,8 km/h (0 Bft) S-SW 202 0 min -2,1 C 0,2 C 4,2 km/h (1 Bft)
14.01.2016 01:40 -0,5 C 23,0 C 0,4 C 0,2 C 0,2 C 0,7 C 89 % 77 % 0 % 1014,7 hPa 0,0 l/m 2,1 km/h (1 Bft) S 180 0 min -2,1 C 0,2 C 3,2 km/h (1 Bft)
14.01.2016 01:45 -0,5 C 23,0 C 0,5 C -0,3 C -0,3 C 0,2 C 89 % 77 % 0 % 1014,7 hPa 0,0 l/m 3,2 km/h (1 Bft) S 180 0 min -2,1 C -0,3 C 9,2 km/h (2 Bft)
14.01.2016 01:50 -0,4 C 23,0 C 0,6 C -0,6 C -1,1 C 0,0 C 89 % 77 % 0 % 1015,1 hPa 0,0 l/m 4,5 km/h (1 Bft) S-SO 157 0 min -2,0 C -1,1 C 8,4 km/h (2 Bft)
14.01.2016 01:55 -0,3 C 23,0 C 0,7 C -0,6 C -1,2 C 0,0 C 89 % 77 % 0 % 1015,1 hPa 0,0 l/m 5,1 km/h (1 Bft) S-SW 202 0 min -1,9 C -3,0 C 3,2 km/h (1 Bft)
14.01.2016 02:00 -0,1 C 23,0 C 0,8 C -0,1 C -0,2 C 0,0 C 90 % 77 % 0 % 1015,1 hPa 0,0 l/m 3,5 km/h (1 Bft) S-SO 157 0 min -1,5 C -0,2 C 3,4 km/h (1 Bft)
14.01.2016 02:05 -0,1 C 23,0 C 0,9 C 0,5 C 0,5 C 0,6 C 89 % 77 % 0 % 1015,1 hPa 0,0 l/m 1,9 km/h (1 Bft) SW 225 0 min -1,7 C 0,5 C 3,5 km/h (1 Bft)
14.01.2016 02:10 -0,1 C 23,0 C 0,8 C 0,6 C 0,6 C 0,7 C 89 % 77 % 0 % 1014,4 hPa 0,0 l/m 1,8 km/h (1 Bft) S-SW 202 0 min -1,7 C 0,6 C 3,1 km/h (1 Bft)
14.01.2016 02:15 -0,1 C 23,0 C 0,9 C 0,2 C 0,2 C 0,3 C 90 % 77 % 0 % 1014,4 hPa 0,0 l/m 3,2 km/h (1 Bft) W-SW 247 0 min -1,5 C 0,2 C 5,6 km/h (1 Bft)
14.01.2016 02:20 0,1 C 23,0 C 1,1 C -0,3 C -1,0 C 0,0 C 90 % 77 % 0 % 1014,4 hPa 0,0 l/m 5,6 km/h (1 Bft) SO 135 0 min -1,3 C -3,0 C 10,8 km/h (2 Bft)
14.01.2016 02:25 0,3 C 23,0 C 1,1 C -0,2 C -1,3 C 0,0 C 90 % 77 % 0 % 1014,4 hPa 0,7 l/m 6,3 km/h (2 Bft) SW 225 0 min -1,1 C -3,6 C 8,2 km/h (2 Bft)
14.01.2016 02:30 0,3 C 23,0 C 1,1 C 0,0 C -0,7 C 0,0 C 90 % 77 % 0 % 1014,2 hPa 0,0 l/m 5,1 km/h (1 Bft) SO 135 0 min -1,1 C -2,4 C 13,8 km/h (3 Bft)
14.01.2016 02:35 0,3 C 23,0 C 1,2 C 0,4 C 0,4 C 0,1 C 90 % 77 % 0 % 1014,2 hPa 0,0 l/m 3,1 km/h (1 Bft) O-SO 112 0 min -1,1 C 0,4 C 0,0 km/h (0 Bft)
14.01.2016 02:40 0,2 C 23,0 C 1,1 C 0,7 C 0,7 C 0,5 C 90 % 77 % 0 % 1014,2 hPa 0,0 l/m 1,3 km/h (1 Bft) O-NO 67 0 min -1,2 C 0,7 C 0,0 km/h (0 Bft)
14.01.2016 02:45 0,1 C 23,0 C 1,1 C 0,6 C 0,6 C 0,5 C 90 % 77 % 0 % 1014,2 hPa 0,0 l/m 1,0 km/h (0 Bft) W 270 0 min -1,3 C 0,6 C 3,2 km/h (1 Bft)
14.01.2016 02:50 0,0 C 23,0 C 0,9 C 0,4 C 0,4 C 0,4 C 89 % 77 % 0 % 1015,0 hPa 0,0 l/m 0,6 km/h (0 Bft) W-SW 247 0 min -1,6 C 0,4 C 3,5 km/h (1 Bft)
14.01.2016 02:55 0,1 C 23,0 C 0,8 C 0,3 C 0,3 C 0,2 C 89 % 77 % 0 % 1015,0 hPa 0,0 l/m 1,4 km/h (1 Bft) W-SW 247 0 min -1,5 C 0,3 C 2,1 km/h (1 Bft)
14.01.2016 03:00 0,1 C 23,0 C 0,8 C -0,1 C -0,5 C 0,0 C 89 % 77 % 0 % 1015,0 hPa 0,0 l/m 3,5 km/h (1 Bft) SW 225 0 min -1,5 C -0,5 C 5,3 km/h (1 Bft)
14.01.2016 03:05 0,2 C 23,0 C 0,9 C -0,2 C -0,9 C 0,0 C 89 % 77 % 0 % 1015,0 hPa 0,0 l/m 4,2 km/h (1 Bft) W-SW 247 0 min -1,4 C -0,9 C 3,7 km/h (1 Bft)
14.01.2016 03:10 0,3 C 22,9 C 0,8 C -0,1 C -0,9 C 0,0 C 89 % 77 % 0 % 1015,0 hPa 0,0 l/m 4,3 km/h (1 Bft) W-SW 247 0 min -1,3 C -0,9 C 8,4 km/h (2 Bft)
14.01.2016 03:15 0,3 C 22,9 C 0,8 C -0,2 C -1,3 C 0,0 C 89 % 77 % 0 % 1015,0 hPa 0,0 l/m 5,1 km/h (1 Bft) SW 225 0 min -1,3 C -3,1 C 10,6 km/h (2 Bft)
14.01.2016 03:20 0,3 C 22,9 C 0,8 C -0,3 C -1,5 C 0,0 C 89 % 77 % 0 % 1015,0 hPa 0,0 l/m 5,8 km/h (2 Bft) W-SW 247 0 min -1,3 C -3,7 C 6,6 km/h (2 Bft)
14.01.2016 03:25 0,3 C 22,9 C 0,9 C -0,3 C -1,5 C 0,0 C 89 % 77 % 0 % 1015,0 hPa 0,0 l/m 5,8 km/h (2 Bft) W-SW 247 0 min -1,3 C -3,7 C 5,3 km/h (1 Bft)
14.01.2016 03:30 0,5 C 22,9 C 0,9 C -0,1 C -1,4 C 0,0 C 89 % 77 % 0 % 1014,2 hPa 0,0 l/m 5,8 km/h (2 Bft) SW 225 0 min -1,1 C -3,5 C 9,2 km/h (2 Bft)
14.01.2016 03:35 0,4 C 22,9 C 0,9 C -0,2 C -1,4 C 0,0 C 89 % 77 % 0 % 1014,2 hPa 0,0 l/m 5,8 km/h (2 Bft) SW 225 0 min -1,2 C -3,5 C 5,1 km/h (1 Bft)
14.01.2016 03:41 0,5 C 22,9 C 0,9 C -0,1 C -1,4 C 0,0 C 89 % 76 % 0 % 1014,2 hPa 0,0 l/m 6,0 km/h (2 Bft) N 0 0 min -1,1 C -3,6 C 4,7 km/h (1 Bft)
14.01.2016 03:50 0,4 C 22,9 C 0,8 C -0,1 C -1,2 C 0,0 C 89 % 76 % 0 % 1014,7 hPa 0,0 l/m 5,1 km/h (1 Bft) SW 225 0 min -1,2 C -3,0 C 4,5 km/h (1 Bft)
14.01.2016 03:55 0,4 C 22,8 C 0,9 C 0,0 C -0,9 C 0,0 C 89 % 76 % 0 % 1014,7 hPa 0,0 l/m 4,3 km/h (1 Bft) SW 225 0 min -1,2 C -0,9 C 6,9 km/h (2 Bft)
14.01.2016 04:00 0,2 C 22,8 C 0,7 C -0,1 C -0,7 C 0,0 C 89 % 76 % 0 % 1014,7 hPa 0,0 l/m 3,9 km/h (1 Bft) SW 225 0 min -1,4 C -0,7 C 6,9 km/h (2 Bft)
14.01.2016 04:05 0,2 C 22,8 C 0,7 C -0,2 C -0,9 C 0,0 C 89 % 76 % 0 % 1014,7 hPa 0,0 l/m 3,9 km/h (1 Bft) W-SW 247 0 min -1,4 C -0,9 C 5,1 km/h (1 Bft)
14.01.2016 04:10 0,0 C 22,8 C 0,7 C -0,4 C -1,2 C 0,0 C 88 % 76 % 0 % 1013,8 hPa 0,0 l/m 4,0 km/h (1 Bft) S 180 0 min -1,7 C -1,2 C 4,2 km/h (1 Bft)
14.01.2016 04:15 -0,1 C 22,8 C 0,4 C -0,4 C -1,1 C 0,0 C 88 % 76 % 0 % 1013,8 hPa 0,0 l/m 3,5 km/h (1 Bft) W-SW 247 0 min -1,8 C -1,1 C 2,6 km/h (1 Bft)
14.01.2016 04:20 -0,1 C 22,9 C 0,3 C -0,3 C -0,7 C 0,0 C 88 % 76 % 0 % 1013,8 hPa 0,0 l/m 2,7 km/h (1 Bft) W-SW 247 0 min -1,8 C -0,7 C 3,1 km/h (1 Bft)
14.01.2016 04:25 -0,3 C 22,8 C 0,3 C -0,4 C -0,6 C 0,0 C 88 % 76 % 0 % 1013,8 hPa 0,0 l/m 2,1 km/h (1 Bft) SW 225 0 min -2,0 C -0,6 C 1,9 km/h (1 Bft)
14.01.2016 04:30 -0,3 C 22,8 C 0,2 C -0,4 C -0,6 C 0,0 C 88 % 76 % 0 % 1013,8 hPa 0,0 l/m 1,6 km/h (1 Bft) W-SW 247 0 min -2,0 C -0,6 C 2,1 km/h (1 Bft)
14.01.2016 04:35 -0,3 C 22,8 C 0,3 C -0,4 C -0,6 C 0,0 C 88 % 76 % 0 % 1013,8 hPa 0,0 l/m 2,1 km/h (1 Bft) W 270 0 min -2,0 C -0,6 C 5,0 km/h (1 Bft)
14.01.2016 04:40 -0,3 C 22,8 C 0,2 C -0,6 C -1,2 C 0,0 C 88 % 76 % 0 % 1013,8 hPa 0,0 l/m 3,2 km/h (1 Bft) SW 225 0 min -2,0 C -1,2 C 5,1 km/h (1 Bft)
14.01.2016 04:45 -0,4 C 22,8 C 0,1 C -0,8 C -1,6 C 0,0 C 88 % 76 % 0 % 1013,8 hPa 0,0 l/m 3,9 km/h (1 Bft) W 270 0 min -2,1 C -1,6 C 4,5 km/h (1 Bft)
14.01.2016 04:50 -0,4 C 22,8 C 0,1 C -0,7 C -1,3 C 0,0 C 89 % 76 % 0 % 1013,8 hPa 0,0 l/m 3,7 km/h (1 Bft) O-NO 67 0 min -2,0 C -1,3 C 0,0 km/h (0 Bft)
14.01.2016 04:55 -0,4 C 22,8 C 0,3 C -0,6 C -1,1 C 0,0 C 89 % 76 % 0 % 1013,8 hPa 0,0 l/m 3,4 km/h (1 Bft) O-SO 112 0 min -2,0 C -1,1 C 6,4 km/h (2 Bft)
14.01.2016 05:00 -0,3 C 22,8 C 0,3 C -0,5 C -0,8 C 0,0 C 89 % 76 % 0 % 1013,8 hPa 0,0 l/m 3,1 km/h (1 Bft) W-SW 247 0 min -1,9 C -0,8 C 2,9 km/h (1 Bft)
14.01.2016 05:05 -0,3 C 22,8 C 0,3 C -0,5 C -0,8 C 0,0 C 89 % 76 % 0 % 1013,8 hPa 0,0 l/m 3,1 km/h (1 Bft) W-SW 247 0 min -1,9 C -0,8 C 3,1 km/h (1 Bft)
14.01.2016 05:10 -0,3 C 22,8 C 0,3 C -0,3 C -0,4 C 0,0 C 89 % 76 % 0 % 1013,8 hPa 0,0 l/m 2,6 km/h (1 Bft) NO 45 0 min -1,9 C -0,4 C 1,9 km/h (1 Bft)
14.01.2016 05:15 -0,3 C 22,8 C 0,4 C -0,3 C -0,3 C 0,0 C 89 % 76 % 0 % 1013,8 hPa 0,0 l/m 1,9 km/h (1 Bft) SO 135 0 min -1,9 C -0,3 C 3,1 km/h (1 Bft)
14.01.2016 05:20 -0,3 C 22,7 C 0,5 C -0,2 C -0,2 C 0,1 C 89 % 76 % 0 % 1013,8 hPa 0,0 l/m 1,8 km/h (1 Bft) SW 225 0 min -1,9 C -0,2 C 2,9 km/h (1 Bft)
14.01.2016 05:25 -0,3 C 22,7 C 0,4 C -0,3 C -0,3 C 0,0 C 89 % 76 % 0 % 1013,8 hPa 0,0 l/m 2,6 km/h (1 Bft) W-SW 247 0 min -1,9 C -0,3 C 6,8 km/h (2 Bft)
14.01.2016 05:30 -0,3 C 22,7 C 0,4 C 0,0 C 0,0 C 0,3 C 89 % 76 % 0 % 1014,1 hPa 0,0 l/m 2,1 km/h (1 Bft) S-SW 202 0 min -1,9 C 0,0 C 1,6 km/h (1 Bft)
14.01.2016 05:35 -0,3 C 22,7 C 0,4 C 0,0 C 0,0 C 0,3 C 88 % 76 % 0 % 1014,1 hPa 0,0 l/m 2,3 km/h (1 Bft) O 90 0 min -2,0 C 0,0 C 4,5 km/h (1 Bft)
14.01.2016 05:40 -0,3 C 22,7 C 0,5 C -0,2 C -0,2 C 0,1 C 89 % 76 % 0 % 1014,1 hPa 0,0 l/m 2,7 km/h (1 Bft) S 180 0 min -1,9 C -0,2 C 2,6 km/h (1 Bft)
14.01.2016 05:45 -0,1 C 22,7 C 0,7 C -0,1 C -0,2 C 0,0 C 88 % 76 % 0 % 1014,1 hPa 0,0 l/m 2,7 km/h (1 Bft) W-SW 247 0 min -1,8 C -0,2 C 1,6 km/h (1 Bft)
14.01.2016 05:50 -0,1 C 22,7 C 0,6 C 0,2 C 0,2 C 0,3 C 89 % 76 % 0 % 1013,6 hPa 0,0 l/m 2,4 km/h (1 Bft) N-NW 337 0 min -1,7 C 0,2 C 0,0 km/h (0 Bft)
14.01.2016 05:55 -0,1 C 22,7 C 0,7 C 0,2 C 0,2 C 0,3 C 89 % 76 % 0 % 1013,6 hPa 0,0 l/m 2,4 km/h (1 Bft) W-NW 292 0 min -1,7 C 0,2 C 3,1 km/h (1 Bft)
14.01.2016 06:00 -0,1 C 22,7 C 0,8 C 0,4 C 0,4 C 0,5 C 88 % 76 % 0 % 1013,6 hPa 0,0 l/m 2,3 km/h (1 Bft) W-SW 247 0 min -1,8 C 0,4 C 3,9 km/h (1 Bft)
14.01.2016 06:05 -0,1 C 22,7 C 0,8 C 0,4 C 0,4 C 0,5 C 88 % 76 % 0 % 1013,6 hPa 0,0 l/m 2,3 km/h (1 Bft) S-SW 202 0 min -1,8 C 0,4 C 0,0 km/h (0 Bft)
14.01.2016 06:10 -0,1 C 22,7 C 0,9 C 0,5 C 0,5 C 0,6 C 88 % 76 % 0 % 1013,6 hPa 0,0 l/m 1,9 km/h (1 Bft) SW 225 0 min -1,8 C 0,5 C 4,5 km/h (1 Bft)
14.01.2016 06:15 -0,1 C 22,7 C 0,9 C 0,1 C 0,1 C 0,2 C 88 % 76 % 0 % 1013,6 hPa 0,0 l/m 3,2 km/h (1 Bft) S 180 0 min -1,8 C 0,1 C 8,4 km/h (2 Bft)
14.01.2016 06:20 -0,1 C 22,7 C 0,8 C -0,3 C -0,6 C 0,0 C 88 % 76 % 0 % 1013,6 hPa 0,0 l/m 4,5 km/h (1 Bft) S-SW 202 0 min -1,8 C -0,6 C 6,0 km/h (2 Bft)
14.01.2016 06:25 -0,1 C 22,7 C 0,8 C -0,1 C -0,2 C 0,0 C 88 % 76 % 0 % 1013,6 hPa 0,0 l/m 3,7 km/h (1 Bft) S-SO 157 0 min -1,8 C -0,2 C 2,9 km/h (1 Bft)
14.01.2016 06:30 -0,1 C 22,7 C 0,7 C 0,4 C 0,4 C 0,5 C 88 % 76 % 0 % 1013,6 hPa 0,0 l/m 1,8 km/h (1 Bft) W-SW 247 0 min -1,8 C 0,4 C 0,0 km/h (0 Bft)
14.01.2016 06:35 -0,1 C 22,7 C 0,6 C 0,3 C 0,3 C 0,4 C 88 % 76 % 0 % 1013,6 hPa 0,0 l/m 1,3 km/h (1 Bft) SO 135 0 min -1,8 C 0,3 C 2,3 km/h (1 Bft)
14.01.2016 06:41 -0,3 C 22,7 C 0,7 C 0,2 C 0,2 C 0,5 C 88 % 76 % 0 % 1013,6 hPa 0,0 l/m 1,8 km/h (1 Bft) N 0 0 min -2,0 C 0,2 C 0,0 km/h (0 Bft)
14.01.2016 06:50 -0,4 C 22,7 C 0,5 C -0,3 C -0,3 C 0,1 C 87 % 76 % 0 % 1013,6 hPa 0,0 l/m 0,5 km/h (0 Bft) N 360 0 min -2,3 C -0,3 C 0,0 km/h (0 Bft)
14.01.2016 06:55 -0,3 C 22,7 C 0,4 C -0,3 C -0,3 C 0,0 C 87 % 76 % 0 % 1013,6 hPa 0,0 l/m 0,8 km/h (0 Bft) SW 225 0 min -2,2 C -0,3 C 1,6 km/h (1 Bft)
14.01.2016 07:00 -0,5 C 22,8 C 0,4 C -0,3 C -0,3 C 0,2 C 87 % 76 % 0 % 1013,6 hPa 0,0 l/m 1,0 km/h (0 Bft) W-NW 292 0 min -2,4 C -0,3 C 0,0 km/h (0 Bft)
14.01.2016 07:05 -0,5 C 22,8 C 0,3 C -0,3 C -0,3 C 0,2 C 87 % 76 % 0 % 1013,6 hPa 0,0 l/m 0,8 km/h (0 Bft) S 180 0 min -2,4 C -0,3 C 0,0 km/h (0 Bft)
14.01.2016 07:10 -0,5 C 22,7 C 0,3 C -0,4 C -0,4 C 0,1 C 87 % 76 % 0 % 1013,2 hPa 0,0 l/m 0,6 km/h (0 Bft) W-SW 247 0 min -2,4 C -0,4 C 3,2 km/h (1 Bft)
14.01.2016 07:15 -0,5 C 22,7 C 0,4 C -0,2 C -0,2 C 0,3 C 88 % 76 % 0 % 1013,2 hPa 0,0 l/m 0,8 km/h (0 Bft) SW 225 0 min -2,2 C -0,2 C 0,0 km/h (0 Bft)
14.01.2016 07:20 -0,6 C 22,7 C 0,4 C 0,0 C 0,0 C 0,6 C 88 % 76 % 0 % 1013,2 hPa 0,0 l/m 0,8 km/h (0 Bft) S-SO 157 0 min -2,3 C 0,0 C 3,1 km/h (1 Bft)
14.01.2016 07:25 -0,6 C 22,7 C 0,4 C 0,1 C 0,1 C 0,7 C 88 % 76 % 0 % 1013,2 hPa 0,0 l/m 0,6 km/h (0 Bft) W-SW 247 0 min -2,3 C 0,1 C 0,0 km/h (0 Bft)
14.01.2016 07:30 -0,6 C 22,7 C 0,4 C 0,1 C 0,1 C 0,7 C 88 % 76 % 0 % 1013,4 hPa 0,0 l/m 0,5 km/h (0 Bft) W-SW 247 0 min -2,3 C 0,1 C 0,0 km/h (0 Bft)
14.01.2016 07:35 -0,5 C 22,7 C 0,5 C 0,1 C 0,1 C 0,6 C 88 % 76 % 0 % 1013,4 hPa 0,0 l/m 0,3 km/h (0 Bft) W 270 0 min -2,2 C 0,1 C 2,4 km/h (1 Bft)
14.01.2016 07:40 -0,5 C 22,7 C 0,5 C 0,2 C 0,2 C 0,7 C 88 % 76 % 0 % 1013,4 hPa 0,0 l/m 0,6 km/h (0 Bft) W-SW 247 0 min -2,2 C 0,2 C 0,0 km/h (0 Bft)
14.01.2016 07:45 -0,5 C 22,7 C 0,4 C 0,2 C 0,2 C 0,7 C 88 % 76 % 0 % 1013,4 hPa 0,0 l/m 0,8 km/h (0 Bft) SO 135 0 min -2,2 C 0,2 C 0,0 km/h (0 Bft)
14.01.2016 07:50 -0,5 C 22,7 C 0,5 C 0,2 C 0,2 C 0,7 C 88 % 76 % 0 % 1013,4 hPa 0,0 l/m 1,1 km/h (1 Bft) S 180 0 min -2,2 C 0,2 C 6,3 km/h (2 Bft)
14.01.2016 07:55 -0,5 C 22,7 C 0,6 C 0,0 C 0,0 C 0,5 C 88 % 76 % 0 % 1013,4 hPa 0,0 l/m 2,7 km/h (1 Bft) W-SW 247 0 min -2,2 C 0,0 C 5,5 km/h (1 Bft)
14.01.2016 08:00 -0,4 C 22,7 C 0,6 C -0,4 C -0,5 C 0,0 C 88 % 76 % 0 % 1013,4 hPa 0,0 l/m 3,5 km/h (1 Bft) S-SO 157 0 min -2,1 C -0,5 C 3,2 km/h (1 Bft)
14.01.2016 08:05 -0,4 C 22,7 C 0,7 C 0,3 C 0,3 C 0,7 C 88 % 76 % 0 % 1013,4 hPa 0,0 l/m 2,3 km/h (1 Bft) S 180 0 min -2,1 C 0,3 C 0,0 km/h (0 Bft)
14.01.2016 08:10 -0,3 C 22,7 C 0,5 C 0,3 C 0,3 C 0,6 C 88 % 76 % 0 % 1013,4 hPa 0,0 l/m 1,3 km/h (1 Bft) S-SO 157 0 min -2,0 C 0,3 C 0,0 km/h (0 Bft)
14.01.2016 08:15 -0,5 C 22,7 C 0,6 C 0,2 C 0,2 C 0,7 C 88 % 76 % 0 % 1013,4 hPa 0,0 l/m 1,6 km/h (1 Bft) S-SO 157 0 min -2,2 C 0,2 C 6,6 km/h (2 Bft)
14.01.2016 08:20 -0,5 C 22,6 C 0,6 C 0,4 C 0,4 C 0,9 C 88 % 76 % 24 % 1013,4 hPa 0,0 l/m 2,3 km/h (1 Bft) S 180 5 min -2,2 C 0,4 C 6,4 km/h (2 Bft)
14.01.2016 08:25 -0,4 C 22,6 C 0,7 C 0,3 C 0,3 C 0,7 C 88 % 76 % 18 % 1013,4 hPa 0,0 l/m 2,7 km/h (1 Bft) SW 225 5 min -2,1 C 0,3 C 7,4 km/h (2 Bft)
14.01.2016 08:30 -0,3 C 22,6 C 0,7 C 0,0 C 0,0 C 0,3 C 88 % 76 % 8 % 1013,6 hPa 0,0 l/m 3,4 km/h (1 Bft) SO 135 0 min -2,0 C 0,0 C 6,6 km/h (2 Bft)
14.01.2016 08:35 -0,3 C 22,6 C 0,8 C -0,3 C -0,3 C 0,0 C 88 % 76 % 0 % 1013,6 hPa 0,0 l/m 4,0 km/h (1 Bft) N-NW 337 0 min -2,0 C -0,3 C 9,3 km/h (2 Bft)
14.01.2016 08:40 -0,1 C 22,6 C 0,7 C -0,3 C -0,6 C 0,0 C 87 % 76 % 0 % 1013,6 hPa 0,0 l/m 4,5 km/h (1 Bft) S-SW 202 0 min -2,0 C -0,6 C 2,4 km/h (1 Bft)
14.01.2016 08:45 -0,1 C 22,6 C 0,7 C -0,2 C -0,4 C 0,0 C 87 % 76 % 0 % 1013,6 hPa 0,0 l/m 4,3 km/h (1 Bft) S 180 0 min -2,0 C -0,4 C 7,7 km/h (2 Bft)
14.01.2016 08:50 -0,1 C 22,6 C 0,7 C -0,3 C -0,8 C 0,0 C 87 % 76 % 0 % 1013,4 hPa 0,0 l/m 5,0 km/h (1 Bft) SW 225 0 min -2,0 C -2,5 C 3,9 km/h (1 Bft)
14.01.2016 08:55 -0,1 C 22,6 C 0,7 C -0,3 C -0,8 C 0,0 C 87 % 76 % 0 % 1013,4 hPa 0,0 l/m 5,0 km/h (1 Bft) S 180 0 min -2,0 C -2,5 C 3,1 km/h (1 Bft)
14.01.2016 09:00 -0,1 C 22,6 C 0,7 C 0,0 C 0,0 C 0,1 C 87 % 76 % 3 % 1013,4 hPa 0,0 l/m 3,4 km/h (1 Bft) S 180 0 min -2,0 C 0,0 C 4,8 km/h (1 Bft)
14.01.2016 09:05 -0,1 C 22,6 C 0,7 C -0,2 C -0,5 C 0,0 C 86 % 76 % 0 % 1013,4 hPa 0,0 l/m 4,2 km/h (1 Bft) S 180 0 min -2,2 C -0,5 C 10,1 km/h (2 Bft)
14.01.2016 09:10 -0,1 C 22,6 C 0,7 C -0,5 C -1,3 C 0,0 C 86 % 76 % 0 % 1013,3 hPa 0,0 l/m 5,8 km/h (2 Bft) S-SW 202 0 min -2,2 C -3,4 C 14,5 km/h (3 Bft)
14.01.2016 09:15 -0,1 C 22,6 C 0,7 C -0,5 C -1,2 C 0,0 C 86 % 76 % 0 % 1013,3 hPa 0,0 l/m 5,3 km/h (1 Bft) S 180 0 min -2,2 C -3,1 C 5,3 km/h (1 Bft)
14.01.2016 09:20 -0,1 C 22,6 C 0,5 C -0,1 C -0,2 C 0,0 C 86 % 76 % 0 % 1013,3 hPa 0,0 l/m 3,5 km/h (1 Bft) SW 225 0 min -2,2 C -0,2 C 2,3 km/h (1 Bft)
14.01.2016 09:25 -0,1 C 22,6 C 0,6 C 0,3 C 0,3 C 0,4 C 86 % 76 % 11 % 1013,3 hPa 0,0 l/m 2,7 km/h (1 Bft) W-SW 247 0 min -2,2 C 0,3 C 3,2 km/h (1 Bft)
14.01.2016 09:30 -0,1 C 22,6 C 0,7 C 0,4 C 0,4 C 0,5 C 86 % 76 % 13 % 1013,3 hPa 0,0 l/m 2,4 km/h (1 Bft) W-SW 247 0 min -2,2 C 0,4 C 1,8 km/h (1 Bft)
14.01.2016 09:35 -0,2 C 22,5 C 0,6 C 0,3 C 0,3 C 0,5 C 86 % 76 % 13 % 1013,3 hPa 0,0 l/m 2,7 km/h (1 Bft) S-SO 157 0 min -2,3 C 0,3 C 5,6 km/h (1 Bft)
14.01.2016 09:41 -0,1 C 22,5 C 0,7 C -0,3 C -0,6 C 0,0 C 86 % 76 % 0 % 1013,3 hPa 0,0 l/m 5,3 km/h (1 Bft) N 0 0 min -2,2 C -2,4 C 9,2 km/h (2 Bft)
14.01.2016 09:50 0,3 C 22,5 C 0,8 C 0,1 C -1,4 C 0,0 C 85 % 76 % 0 % 1013,8 hPa 0,0 l/m 7,9 km/h (2 Bft) S 180 0 min -1,9 C -4,3 C 9,2 km/h (2 Bft)
14.01.2016 09:55 0,3 C 22,6 C 0,9 C 0,0 C -1,3 C 0,0 C 85 % 76 % 0 % 1013,8 hPa 0,0 l/m 8,0 km/h (2 Bft) SW 225 0 min -1,9 C -4,3 C 10,3 km/h (2 Bft)
14.01.2016 10:00 0,4 C 22,5 C 0,9 C 0,0 C -0,9 C 0,0 C 84 % 76 % 0 % 1013,8 hPa 0,0 l/m 6,9 km/h (2 Bft) SW 225 0 min -2,0 C -3,4 C 7,9 km/h (2 Bft)
14.01.2016 10:05 0,5 C 22,5 C 1,0 C 0,1 C -0,6 C 0,0 C 84 % 76 % 0 % 1013,8 hPa 0,0 l/m 6,1 km/h (2 Bft) S 180 0 min -1,9 C -2,8 C 11,4 km/h (2 Bft)
14.01.2016 10:10 0,7 C 22,5 C 1,1 C 0,4 C -0,3 C 0,0 C 83 % 76 % 0 % 1013,6 hPa 0,0 l/m 5,6 km/h (1 Bft) S 180 0 min -1,8 C -2,2 C 10,9 km/h (2 Bft)
14.01.2016 10:15 0,8 C 22,5 C 1,1 C 0,5 C -0,1 C 0,0 C 83 % 76 % 0 % 1013,6 hPa 0,0 l/m 6,1 km/h (2 Bft) S-SO 157 0 min -1,8 C -2,2 C 11,9 km/h (2 Bft)
14.01.2016 10:20 1,1 C 22,5 C 1,2 C 0,7 C 0,0 C 0,0 C 82 % 76 % 0 % 1013,6 hPa 0,0 l/m 6,3 km/h (2 Bft) S-SO 157 0 min -1,6 C -2,1 C 13,0 km/h (3 Bft)
14.01.2016 10:25 1,3 C 22,5 C 1,2 C 1,0 C 0,3 C 0,0 C 82 % 76 % 0 % 1013,6 hPa 0,0 l/m 5,6 km/h (1 Bft) O-NO 67 0 min -1,4 C -1,5 C 1,8 km/h (1 Bft)
14.01.2016 10:30 1,3 C 22,5 C 1,3 C 1,0 C 0,3 C 0,0 C 82 % 76 % 0 % 1013,4 hPa 0,0 l/m 5,1 km/h (1 Bft) O-SO 112 0 min -1,4 C -1,3 C 8,9 km/h (2 Bft)
14.01.2016 10:35 1,3 C 22,5 C 1,3 C 1,1 C 0,7 C 0,0 C 82 % 76 % 0 % 1013,4 hPa 0,0 l/m 4,3 km/h (1 Bft) N-NW 337 0 min -1,4 C 0,7 C 5,6 km/h (1 Bft)
14.01.2016 10:40 1,3 C 22,5 C 1,5 C 1,9 C 1,9 C 0,6 C 82 % 76 % 16 % 1013,4 hPa 0,0 l/m 2,9 km/h (1 Bft) SO 135 0 min -1,4 C 1,9 C 2,1 km/h (1 Bft)
14.01.2016 10:45 1,5 C 22,5 C 1,5 C 2,4 C 2,4 C 0,9 C 82 % 76 % 24 % 1013,4 hPa 0,0 l/m 2,1 km/h (1 Bft) S 180 0 min -1,2 C 2,4 C 3,1 km/h (1 Bft)
14.01.2016 10:50 1,5 C 22,5 C 1,5 C 3,0 C 3,0 C 1,5 C 82 % 76 % 39 % 1013,1 hPa 0,0 l/m 2,7 km/h (1 Bft) W-SW 247 0 min -1,2 C 3,0 C 6,1 km/h (2 Bft)
14.01.2016 10:55 1,5 C 22,5 C 1,6 C 3,1 C 3,1 C 1,6 C 81 % 76 % 42 % 1013,1 hPa 0,0 l/m 3,1 km/h (1 Bft) S-SW 202 0 min -1,4 C 3,1 C 6,1 km/h (2 Bft)
14.01.2016 11:00 1,6 C 22,5 C 1,6 C 2,9 C 2,9 C 1,3 C 81 % 75 % 34 % 1013,1 hPa 0,0 l/m 3,1 km/h (1 Bft) W-SW 247 0 min -1,3 C 2,9 C 4,7 km/h (1 Bft)
14.01.2016 11:05 1,7 C 22,5 C 1,7 C 3,0 C 3,0 C 1,3 C 81 % 75 % 34 % 1013,1 hPa 0,0 l/m 2,7 km/h (1 Bft) S-SO 157 0 min -1,2 C 3,0 C 4,5 km/h (1 Bft)
14.01.2016 11:10 1,8 C 22,5 C 1,9 C 2,4 C 2,4 C 0,6 C 81 % 75 % 16 % 1013,1 hPa 0,0 l/m 3,2 km/h (1 Bft) SO 135 0 min -1,1 C 2,4 C 3,5 km/h (1 Bft)
14.01.2016 11:15 1,9 C 22,5 C 1,9 C 2,2 C 2,2 C 0,3 C 81 % 75 % 8 % 1013,1 hPa 0,0 l/m 3,5 km/h (1 Bft) NO 45 0 min -1,0 C 2,2 C 2,4 km/h (1 Bft)
14.01.2016 11:20 2,1 C 22,5 C 2,0 C 2,0 C 1,8 C 0,0 C 80 % 75 % 0 % 1013,1 hPa 0,0 l/m 4,3 km/h (1 Bft) SW 225 0 min -1,0 C 1,8 C 10,5 km/h (2 Bft)
14.01.2016 11:25 2,2 C 22,5 C 2,0 C 2,0 C 1,6 C 0,0 C 79 % 75 % 0 % 1013,1 hPa 0,0 l/m 5,8 km/h (2 Bft) SW 225 0 min -1,1 C -0,1 C 10,1 km/h (2 Bft)
14.01.2016 11:30 2,3 C 22,5 C 2,0 C 2,2 C 1,9 C 0,0 C 79 % 75 % 0 % 1012,4 hPa 0,0 l/m 6,3 km/h (2 Bft) S 180 0 min -1,0 C 0,0 C 4,5 km/h (1 Bft)
14.01.2016 11:35 2,4 C 22,4 C 2,1 C 3,3 C 3,3 C 0,9 C 78 % 75 % 24 % 1012,4 hPa 0,0 l/m 5,6 km/h (1 Bft) N-NW 337 0 min -1,0 C 1,9 C 4,8 km/h (1 Bft)
14.01.2016 11:40 2,5 C 22,4 C 2,1 C 5,1 C 5,1 C 2,6 C 78 % 75 % 68 % 1012,4 hPa 0,0 l/m 5,1 km/h (1 Bft) S-SO 157 0 min -0,9 C 4,2 C 9,2 km/h (2 Bft)
14.01.2016 11:45 2,7 C 22,4 C 2,1 C 5,0 C 5,0 C 2,3 C 77 % 75 % 61 % 1012,4 hPa 0,0 l/m 6,0 km/h (2 Bft) W 270 0 min -0,9 C 3,7 C 6,6 km/h (2 Bft)
14.01.2016 11:50 2,7 C 22,4 C 2,3 C 5,7 C 5,7 C 3,0 C 77 % 75 % 79 % 1012,1 hPa 0,0 l/m 5,5 km/h (1 Bft) S-SW 202 0 min -0,9 C 4,7 C 0,0 km/h (0 Bft)
14.01.2016 11:55 2,7 C 22,4 C 2,3 C 6,6 C 6,6 C 3,9 C 77 % 75 % 100 % 1012,1 hPa 0,0 l/m 4,3 km/h (1 Bft) S-SO 157 5 min -0,9 C 6,6 C 4,7 km/h (1 Bft)
14.01.2016 12:00 2,8 C 22,4 C 2,3 C 6,1 C 6,1 C 3,3 C 77 % 76 % 87 % 1012,1 hPa 0,0 l/m 4,0 km/h (1 Bft) S-SO 157 5 min -0,8 C 6,1 C 11,1 km/h (2 Bft)
14.01.2016 12:05 2,8 C 22,5 C 2,3 C 5,7 C 5,7 C 2,9 C 77 % 76 % 76 % 1012,1 hPa 0,0 l/m 4,7 km/h (1 Bft) S 180 0 min -0,8 C 5,0 C 6,3 km/h (2 Bft)
14.01.2016 12:10 2,9 C 22,4 C 2,3 C 4,2 C 4,2 C 1,3 C 76 % 77 % 34 % 1011,6 hPa 0,0 l/m 5,5 km/h (1 Bft) S-SW 202 0 min -0,9 C 3,0 C 12,1 km/h (2 Bft)
14.01.2016 12:15 3,0 C 22,5 C 2,3 C 3,4 C 3,4 C 0,4 C 75 % 78 % 11 % 1011,6 hPa 0,0 l/m 6,0 km/h (2 Bft) S-SO 157 0 min -1,0 C 1,9 C 3,9 km/h (1 Bft)
14.01.2016 12:20 3,1 C 22,5 C 2,3 C 3,0 C 2,8 C 0,0 C 75 % 79 % 0 % 1011,6 hPa 0,0 l/m 6,9 km/h (2 Bft) W 270 0 min -0,9 C 0,9 C 5,8 km/h (2 Bft)
14.01.2016 12:25 3,2 C 22,5 C 2,4 C 3,2 C 3,1 C 0,0 C 75 % 80 % 0 % 1011,6 hPa 0,0 l/m 6,1 km/h (2 Bft) O-NO 67 0 min -0,8 C 1,5 C 3,5 km/h (1 Bft)
14.01.2016 12:30 3,2 C 22,4 C 2,4 C 3,9 C 3,9 C 0,7 C 75 % 81 % 18 % 1011,2 hPa 0,0 l/m 6,3 km/h (2 Bft) W 270 0 min -0,8 C 2,4 C 15,8 km/h (3 Bft)
14.01.2016 12:35 3,2 C 22,4 C 2,5 C 3,7 C 3,7 C 0,5 C 75 % 82 % 13 % 1011,2 hPa 0,0 l/m 6,0 km/h (2 Bft) S-SW 202 0 min -0,8 C 2,2 C 15,0 km/h (3 Bft)
14.01.2016 12:41 3,3 C 22,4 C 2,6 C 3,4 C 3,4 C 0,1 C 75 % 84 % 3 % 1011,2 hPa 0,0 l/m 5,1 km/h (1 Bft) N 0 0 min -0,7 C 2,2 C 5,3 km/h (1 Bft)
14.01.2016 12:50 3,5 C 22,4 C 2,8 C 3,7 C 3,7 C 0,2 C 74 % 86 % 5 % 1011,0 hPa 0,0 l/m 5,3 km/h (1 Bft) SO 135 0 min -0,7 C 2,5 C 17,7 km/h (3 Bft)
14.01.2016 12:55 3,5 C 22,4 C 2,9 C 3,6 C 3,6 C 0,1 C 73 % 87 % 3 % 1011,0 hPa 0,0 l/m 6,0 km/h (2 Bft) NW 315 0 min -0,9 C 2,1 C 6,0 km/h (2 Bft)
14.01.2016 13:00 3,6 C 22,4 C 2,8 C 4,1 C 4,1 C 0,5 C 73 % 88 % 13 % 1011,0 hPa 0,0 l/m 6,6 km/h (2 Bft) S 180 0 min -0,8 C 2,5 C 16,9 km/h (3 Bft)
14.01.2016 13:05 3,6 C 22,4 C 2,9 C 4,2 C 4,2 C 0,6 C 73 % 89 % 16 % 1011,0 hPa 0,0 l/m 5,8 km/h (2 Bft) SW 225 0 min -0,8 C 2,9 C 4,3 km/h (1 Bft)
14.01.2016 13:10 3,6 C 22,4 C 2,9 C 3,6 C 3,6 C 0,0 C 72 % 89 % 0 % 1011,1 hPa 0,0 l/m 7,4 km/h (2 Bft) W-NW 292 0 min -1,0 C 1,7 C 7,2 km/h (2 Bft)
14.01.2016 13:15 3,7 C 22,4 C 2,9 C 3,7 C 3,6 C 0,0 C 72 % 89 % 0 % 1011,1 hPa 0,0 l/m 7,1 km/h (2 Bft) SW 225 0 min -0,9 C 1,8 C 4,5 km/h (1 Bft)
14.01.2016 13:20 3,7 C 22,4 C 3,1 C 4,3 C 4,3 C 0,6 C 73 % 89 % 16 % 1011,1 hPa 0,0 l/m 5,6 km/h (1 Bft) SW 225 0 min -0,7 C 3,1 C 11,7 km/h (2 Bft)
14.01.2016 13:25 3,8 C 22,4 C 3,1 C 4,6 C 4,6 C 0,8 C 73 % 89 % 21 % 1011,1 hPa 0,0 l/m 5,5 km/h (1 Bft) W-SW 247 0 min -0,6 C 3,4 C 9,3 km/h (2 Bft)
14.01.2016 13:30 3,9 C 22,4 C 3,1 C 5,1 C 5,1 C 1,2 C 73 % 89 % 32 % 1010,3 hPa 0,0 l/m 6,8 km/h (2 Bft) O-SO 112 0 min -0,5 C 3,6 C 5,6 km/h (1 Bft)
14.01.2016 13:35 3,9 C 22,4 C 3,1 C 5,8 C 5,8 C 1,9 C 72 % 89 % 50 % 1010,3 hPa 0,0 l/m 6,3 km/h (2 Bft) N 360 0 min -0,7 C 4,5 C 5,3 km/h (1 Bft)
14.01.2016 13:40 3,9 C 22,4 C 3,2 C 6,7 C 6,7 C 2,8 C 73 % 88 % 74 % 1010,3 hPa 0,0 l/m 5,5 km/h (1 Bft) W-SW 247 0 min -0,5 C 5,8 C 6,9 km/h (2 Bft)
14.01.2016 13:45 4,0 C 22,5 C 3,2 C 7,1 C 7,1 C 3,1 C 73 % 89 % 82 % 1010,3 hPa 0,0 l/m 5,5 km/h (1 Bft) N-NO 22 0 min -0,4 C 6,3 C 3,9 km/h (1 Bft)
14.01.2016 13:50 4,0 C 22,5 C 3,1 C 7,1 C 7,1 C 3,1 C 73 % 88 % 82 % 1010,1 hPa 0,0 l/m 4,5 km/h (1 Bft) S-SW 202 0 min -0,4 C 7,1 C 2,4 km/h (1 Bft)
14.01.2016 13:55 4,0 C 22,5 C 3,1 C 7,5 C 7,5 C 3,5 C 73 % 88 % 92 % 1010,1 hPa 0,0 l/m 3,2 km/h (1 Bft) SW 225 5 min -0,4 C 7,5 C 1,8 km/h (1 Bft)
14.01.2016 14:00 4,1 C 22,5 C 3,3 C 7,6 C 7,6 C 3,5 C 72 % 89 % 92 % 1010,1 hPa 0,0 l/m 3,7 km/h (1 Bft) W-SW 247 5 min -0,5 C 7,6 C 3,4 km/h (1 Bft)
14.01.2016 14:05 4,3 C 22,5 C 3,5 C 7,8 C 7,8 C 3,5 C 72 % 88 % 92 % 1010,1 hPa 0,0 l/m 4,5 km/h (1 Bft) S 180 5 min -0,3 C 7,8 C 5,3 km/h (1 Bft)
14.01.2016 14:10 4,5 C 22,5 C 3,6 C 8,3 C 8,3 C 3,8 C 72 % 88 % 100 % 1010,0 hPa 0,0 l/m 4,2 km/h (1 Bft) S 180 5 min -0,1 C 8,3 C 4,3 km/h (1 Bft)
14.01.2016 14:15 4,6 C 22,5 C 3,6 C 8,4 C 8,4 C 3,8 C 72 % 88 % 100 % 1010,0 hPa 0,0 l/m 4,5 km/h (1 Bft) W-SW 247 5 min -0,0 C 8,4 C 11,1 km/h (2 Bft)
14.01.2016 14:20 4,6 C 22,5 C 3,6 C 9,0 C 9,0 C 4,4 C 72 % 88 % 100 % 1010,0 hPa 0,0 l/m 3,7 km/h (1 Bft) W-NW 292 5 min -0,0 C 9,0 C 4,3 km/h (1 Bft)
14.01.2016 14:25 4,7 C 22,5 C 3,7 C 8,7 C 8,7 C 4,0 C 71 % 88 % 100 % 1010,0 hPa 0,0 l/m 4,5 km/h (1 Bft) SW 225 5 min -0,1 C 8,7 C 10,8 km/h (2 Bft)
14.01.2016 14:30 4,7 C 22,5 C 3,6 C 7,2 C 7,2 C 2,5 C 69 % 87 % 66 % 1009,8 hPa 0,0 l/m 6,6 km/h (2 Bft) S-SW 202 0 min -0,5 C 6,1 C 3,5 km/h (1 Bft)
14.01.2016 14:35 4,6 C 22,5 C 3,6 C 7,1 C 6,4 C 2,5 C 69 % 86 % 66 % 1009,8 hPa 0,0 l/m 7,7 km/h (2 Bft) SO 135 0 min -0,6 C 4,9 C 10,0 km/h (2 Bft)
14.01.2016 14:40 4,6 C 22,5 C 3,7 C 6,4 C 6,4 C 1,8 C 70 % 86 % 47 % 1009,8 hPa 0,0 l/m 6,3 km/h (2 Bft) S 180 0 min -0,4 C 5,2 C 2,9 km/h (1 Bft)
14.01.2016 14:45 4,7 C 22,5 C 3,6 C 7,2 C 7,2 C 2,5 C 70 % 86 % 66 % 1009,8 hPa 0,0 l/m 5,1 km/h (1 Bft) S 180 0 min -0,3 C 6,5 C 4,5 km/h (1 Bft)
14.01.2016 14:50 4,6 C 22,5 C 3,6 C 7,5 C 7,5 C 2,9 C 70 % 86 % 76 % 1009,1 hPa 0,0 l/m 4,5 km/h (1 Bft) O-SO 112 0 min -0,4 C 7,5 C 9,7 km/h (2 Bft)
14.01.2016 14:55 4,5 C 22,5 C 3,5 C 6,9 C 6,9 C 2,4 C 70 % 85 % 63 % 1009,1 hPa 0,0 l/m 5,0 km/h (1 Bft) W-SW 247 0 min -0,5 C 6,2 C 5,5 km/h (1 Bft)
14.01.2016 15:00 4,4 C 22,5 C 3,3 C 5,4 C 5,4 C 1,0 C 70 % 87 % 26 % 1009,1 hPa 0,0 l/m 4,7 km/h (1 Bft) S 180 0 min -0,6 C 4,7 C 3,9 km/h (1 Bft)
14.01.2016 15:05 4,2 C 22,5 C 3,2 C 5,2 C 5,2 C 1,0 C 70 % 87 % 26 % 1009,1 hPa 0,0 l/m 3,2 km/h (1 Bft) N-NW 337 0 min -0,8 C 5,2 C 0,0 km/h (0 Bft)
14.01.2016 15:10 4,1 C 22,5 C 3,1 C 4,2 C 4,2 C 0,1 C 70 % 87 % 3 % 1008,8 hPa 0,0 l/m 3,1 km/h (1 Bft) SW 225 0 min -0,9 C 4,2 C 7,1 km/h (2 Bft)
14.01.2016 15:15 4,1 C 22,5 C 3,1 C 4,0 C 3,8 C 0,0 C 71 % 87 % 0 % 1008,8 hPa 0,0 l/m 3,5 km/h (1 Bft) O-NO 67 0 min -0,7 C 3,8 C 2,4 km/h (1 Bft)
14.01.2016 15:20 4,0 C 22,5 C 2,9 C 3,7 C 3,1 C 0,0 C 71 % 87 % 0 % 1008,8 hPa 0,0 l/m 4,0 km/h (1 Bft) S 180 0 min -0,8 C 3,1 C 9,5 km/h (2 Bft)
14.01.2016 15:25 3,9 C 22,5 C 2,9 C 3,7 C 3,2 C 0,0 C 71 % 87 % 0 % 1008,8 hPa 0,0 l/m 3,4 km/h (1 Bft) O-NO 67 0 min -0,9 C 3,2 C 4,3 km/h (1 Bft)
14.01.2016 15:30 3,9 C 22,5 C 2,7 C 3,4 C 2,4 C 0,0 C 71 % 88 % 0 % 1009,2 hPa 0,0 l/m 4,3 km/h (1 Bft) O-NO 67 0 min -0,9 C 2,4 C 4,7 km/h (1 Bft)
14.01.2016 15:35 3,7 C 22,5 C 2,7 C 3,3 C 2,6 C 0,0 C 71 % 88 % 0 % 1009,2 hPa 0,0 l/m 3,7 km/h (1 Bft) S 180 0 min -1,1 C 2,6 C 10,0 km/h (2 Bft)
14.01.2016 15:41 3,7 C 22,5 C 2,6 C 3,3 C 2,5 C 0,0 C 72 % 88 % 0 % 1009,2 hPa 0,0 l/m 3,5 km/h (1 Bft) N 0 0 min -0,9 C 2,5 C 3,4 km/h (1 Bft)
14.01.2016 15:50 3,5 C 22,5 C 2,5 C 3,1 C 2,4 C 0,0 C 72 % 88 % 0 % 1008,8 hPa 0,0 l/m 3,4 km/h (1 Bft) S 180 0 min -1,1 C 2,4 C 2,3 km/h (1 Bft)
14.01.2016 15:55 3,4 C 22,6 C 2,4 C 3,1 C 2,4 C 0,0 C 72 % 88 % 0 % 1008,8 hPa 0,0 l/m 3,2 km/h (1 Bft) SO 135 0 min -1,2 C 2,4 C 3,7 km/h (1 Bft)
14.01.2016 16:00 3,5 C 22,6 C 2,5 C 3,2 C 2,6 C 0,0 C 72 % 89 % 0 % 1008,8 hPa 0,0 l/m 3,1 km/h (1 Bft) S 180 0 min -1,1 C 2,6 C 2,6 km/h (1 Bft)
14.01.2016 16:05 3,4 C 22,6 C 2,4 C 3,2 C 2,7 C 0,0 C 72 % 89 % 0 % 1008,8 hPa 0,0 l/m 2,4 km/h (1 Bft) O-NO 67 0 min -1,2 C 2,7 C 2,1 km/h (1 Bft)
14.01.2016 16:10 3,2 C 22,6 C 2,3 C 2,9 C 2,4 C 0,0 C 73 % 89 % 0 % 1009,0 hPa 0,0 l/m 1,1 km/h (1 Bft) NO 45 0 min -1,2 C 2,4 C 0,0 km/h (0 Bft)
14.01.2016 16:15 3,1 C 22,7 C 2,1 C 2,8 C 2,3 C 0,0 C 73 % 88 % 0 % 1009,0 hPa 0,0 l/m 0,8 km/h (0 Bft) N-NO 22 0 min -1,3 C 2,3 C 2,6 km/h (1 Bft)
14.01.2016 16:20 3,1 C 22,7 C 2,0 C 2,7 C 2,0 C 0,0 C 73 % 88 % 0 % 1009,0 hPa 0,0 l/m 0,3 km/h (0 Bft) O-NO 67 0 min -1,3 C 2,0 C 0,0 km/h (0 Bft)
14.01.2016 16:25 2,8 C 22,7 C 1,8 C 2,5 C 1,8 C 0,0 C 73 % 88 % 0 % 1009,0 hPa 0,0 l/m 0,3 km/h (0 Bft) NO 45 0 min -1,5 C 1,8 C 0,0 km/h (0 Bft)
14.01.2016 16:30 2,7 C 22,7 C 1,6 C 2,3 C 1,5 C 0,0 C 73 % 89 % 0 % 1008,4 hPa 0,0 l/m 0,0 km/h (0 Bft) SO 135 0 min -1,6 C 1,5 C 0,0 km/h (0 Bft)
14.01.2016 16:35 2,7 C 22,7 C 1,5 C 2,2 C 1,3 C 0,0 C 74 % 89 % 0 % 1008,4 hPa 0,0 l/m 0,0 km/h (0 Bft) O-SO 112 0 min -1,5 C 1,3 C 0,0 km/h (0 Bft)
14.01.2016 16:40 2,5 C 22,7 C 1,5 C 2,1 C 1,2 C 0,0 C 74 % 89 % 0 % 1008,4 hPa 0,0 l/m 0,2 km/h (0 Bft) O-SO 112 0 min -1,7 C 1,2 C 0,0 km/h (0 Bft)
14.01.2016 16:45 2,4 C 22,7 C 1,5 C 2,0 C 1,2 C 0,0 C 74 % 89 % 0 % 1008,4 hPa 0,0 l/m 0,3 km/h (0 Bft) O-NO 67 0 min -1,7 C 1,2 C 0,0 km/h (0 Bft)
14.01.2016 16:50 2,3 C 22,7 C 1,4 C 1,9 C 1,2 C 0,0 C 74 % 89 % 0 % 1008,2 hPa 0,0 l/m 0,5 km/h (0 Bft) S-SO 157 0 min -1,8 C 1,2 C 0,0 km/h (0 Bft)
14.01.2016 16:55 2,3 C 22,7 C 1,2 C 1,9 C 1,0 C 0,0 C 74 % 89 % 0 % 1008,2 hPa 0,0 l/m 0,3 km/h (0 Bft) O-NO 67 0 min -1,8 C 1,0 C 0,0 km/h (0 Bft)
14.01.2016 17:00 2,1 C 22,7 C 1,1 C 1,7 C 0,9 C 0,0 C 74 % 89 % 0 % 1008,2 hPa 0,0 l/m 0,0 km/h (0 Bft) O 90 0 min -2,0 C 0,9 C 0,0 km/h (0 Bft)
14.01.2016 17:05 2,1 C 22,7 C 1,1 C 1,7 C 0,8 C 0,0 C 75 % 89 % 0 % 1008,2 hPa 0,0 l/m 0,0 km/h (0 Bft) O-SO 112 0 min -1,9 C 0,8 C 0,0 km/h (0 Bft)
14.01.2016 17:10 2,0 C 22,7 C 0,9 C 1,6 C 0,7 C 0,0 C 75 % 89 % 0 % 1008,4 hPa 0,0 l/m 0,0 km/h (0 Bft) NO 45 0 min -2,0 C 0,7 C 0,0 km/h (0 Bft)
14.01.2016 17:15 1,9 C 22,7 C 0,9 C 1,5 C 0,7 C 0,0 C 75 % 89 % 0 % 1008,4 hPa 0,0 l/m 0,0 km/h (0 Bft) O 90 0 min -2,1 C 0,7 C 0,0 km/h (0 Bft)
14.01.2016 17:20 1,7 C 22,7 C 0,7 C 1,3 C 0,4 C 0,0 C 75 % 89 % 0 % 1008,4 hPa 0,0 l/m 0,0 km/h (0 Bft) N 360 0 min -2,2 C 0,4 C 0,0 km/h (0 Bft)
14.01.2016 17:25 1,7 C 22,7 C 0,4 C 1,2 C 0,2 C 0,0 C 76 % 89 % 0 % 1008,4 hPa 0,0 l/m 0,0 km/h (0 Bft) N-NW 337 0 min -2,1 C 0,2 C 0,0 km/h (0 Bft)
14.01.2016 17:30 1,5 C 22,7 C 0,3 C 0,9 C -0,2 C 0,0 C 76 % 89 % 0 % 1008,3 hPa 0,0 l/m 0,0 km/h (0 Bft) O-NO 67 0 min -2,3 C -0,2 C 0,0 km/h (0 Bft)
14.01.2016 17:35 1,2 C 22,7 C 0,0 C 0,7 C -0,3 C 0,0 C 76 % 89 % 0 % 1008,3 hPa 0,0 l/m 0,0 km/h (0 Bft) O 90 0 min -2,5 C -0,3 C 0,0 km/h (0 Bft)
14.01.2016 17:40 1,0 C 22,7 C -0,1 C 0,6 C -0,3 C 0,0 C 77 % 89 % 0 % 1008,3 hPa 0,0 l/m 0,0 km/h (0 Bft) O-NO 67 0 min -2,6 C -0,3 C 0,0 km/h (0 Bft)
14.01.2016 17:45 1,0 C 22,7 C -0,1 C 0,6 C -0,3 C 0,0 C 77 % 89 % 0 % 1008,3 hPa 0,0 l/m 0,0 km/h (0 Bft) O 90 0 min -2,6 C -0,3 C 0,0 km/h (0 Bft)
14.01.2016 17:50 0,8 C 22,7 C -0,1 C 0,5 C -0,2 C 0,0 C 77 % 90 % 0 % 1008,3 hPa 0,0 l/m 0,3 km/h (0 Bft) O 90 0 min -2,8 C -0,2 C 1,8 km/h (1 Bft)
14.01.2016 17:55 0,8 C 22,7 C -0,1 C 0,4 C -0,3 C 0,0 C 77 % 90 % 0 % 1008,3 hPa 0,0 l/m 0,3 km/h (0 Bft) O 90 0 min -2,8 C -0,3 C 0,0 km/h (0 Bft)
14.01.2016 18:00 0,7 C 22,7 C -0,1 C 0,3 C -0,4 C 0,0 C 78 % 90 % 0 % 1008,3 hPa 0,0 l/m 0,2 km/h (0 Bft) O-SO 112 0 min -2,7 C -0,4 C 0,0 km/h (0 Bft)
14.01.2016 18:05 0,7 C 22,7 C -0,1 C 0,2 C -0,7 C 0,0 C 78 % 90 % 0 % 1008,3 hPa 0,0 l/m 0,2 km/h (0 Bft) O 90 0 min -2,7 C -0,7 C 0,0 km/h (0 Bft)
14.01.2016 18:10 0,5 C 22,7 C -0,1 C 0,1 C -0,8 C 0,0 C 78 % 90 % 0 % 1008,3 hPa 0,0 l/m 0,0 km/h (0 Bft) W-SW 247 0 min -2,9 C -0,8 C 0,0 km/h (0 Bft)
14.01.2016 18:15 0,5 C 22,7 C -0,1 C 0,1 C -0,8 C 0,0 C 78 % 90 % 0 % 1008,3 hPa 0,0 l/m 0,0 km/h (0 Bft) O-SO 112 0 min -2,9 C -0,8 C 0,0 km/h (0 Bft)
14.01.2016 18:20 0,4 C 22,7 C -0,1 C 0,0 C -0,8 C 0,0 C 78 % 90 % 0 % 1008,3 hPa 0,0 l/m 0,0 km/h (0 Bft) O-NO 67 0 min -3,0 C -0,8 C 1,6 km/h (1 Bft)
14.01.2016 18:25 0,4 C 22,7 C -0,3 C 0,0 C -0,7 C 0,0 C 78 % 90 % 0 % 1008,3 hPa 0,0 l/m 0,2 km/h (0 Bft) O 90 0 min -3,0 C -0,7 C 0,0 km/h (0 Bft)
14.01.2016 18:30 0,5 C 22,7 C -0,2 C 0,1 C -0,7 C 0,0 C 79 % 90 % 0 % 1008,0 hPa 0,0 l/m 0,2 km/h (0 Bft) SW 225 0 min -2,7 C -0,7 C 2,3 km/h (1 Bft)
14.01.2016 18:35 0,5 C 22,7 C 0,1 C 0,2 C -0,4 C 0,0 C 79 % 90 % 0 % 1008,0 hPa 0,0 l/m 0,8 km/h (0 Bft) S 180 0 min -2,7 C -0,4 C 2,1 km/h (1 Bft)
14.01.2016 18:41 0,3 C 22,7 C -0,2 C 0,0 C -0,5 C 0,0 C 79 % 90 % 0 % 1008,0 hPa 0,0 l/m 1,0 km/h (0 Bft) N 0 0 min -2,9 C -0,5 C 0,0 km/h (0 Bft)
14.01.2016 18:50 0,1 C 22,7 C -0,5 C -0,2 C -0,9 C 0,0 C 79 % 90 % 0 % 1008,0 hPa 0,0 l/m 0,0 km/h (0 Bft) NW 315 0 min -3,1 C -0,9 C 0,0 km/h (0 Bft)
14.01.2016 18:55 -0,1 C 22,7 C -0,5 C -0,4 C -1,0 C 0,0 C 79 % 90 % 0 % 1008,0 hPa 0,0 l/m 0,0 km/h (0 Bft) NW 315 0 min -3,3 C -1,0 C 0,0 km/h (0 Bft)
14.01.2016 19:00 -0,1 C 22,7 C -0,3 C -0,4 C -1,0 C 0,0 C 80 % 90 % 0 % 1008,0 hPa 0,0 l/m 0,0 km/h (0 Bft) NO 45 0 min -3,1 C -1,0 C 0,0 km/h (0 Bft)
14.01.2016 19:05 -0,3 C 22,8 C -0,5 C -0,5 C -0,8 C 0,0 C 80 % 90 % 0 % 1008,0 hPa 0,0 l/m 0,0 km/h (0 Bft) O-NO 67 0 min -3,3 C -0,8 C 0,0 km/h (0 Bft)
14.01.2016 19:10 -0,4 C 22,8 C -0,4 C -0,5 C -0,7 C 0,0 C 80 % 90 % 0 % 1007,9 hPa 0,0 l/m 0,0 km/h (0 Bft) O-NO 67 0 min -3,4 C -0,7 C 0,0 km/h (0 Bft)
14.01.2016 19:15 -0,4 C 22,8 C -0,3 C -0,5 C -0,6 C 0,0 C 80 % 90 % 0 % 1007,9 hPa 0,0 l/m 0,0 km/h (0 Bft) O-NO 67 0 min -3,4 C -0,6 C 0,0 km/h (0 Bft)
14.01.2016 19:20 -0,5 C 22,8 C -0,5 C -0,5 C -0,6 C 0,0 C 81 % 90 % 0 % 1007,9 hPa 0,0 l/m 0,0 km/h (0 Bft) O-NO 67 0 min -3,3 C -0,6 C 0,0 km/h (0 Bft)
14.01.2016 19:25 -0,5 C 22,8 C -0,5 C -0,5 C -0,6 C 0,0 C 81 % 89 % 0 % 1007,9 hPa 0,0 l/m 0,0 km/h (0 Bft) O-NO 67 0 min -3,3 C -0,6 C 0,0 km/h (0 Bft)
14.01.2016 19:30 -0,5 C 22,8 C -0,3 C -0,6 C -0,7 C 0,0 C 81 % 90 % 0 % 1007,4 hPa 0,0 l/m 0,0 km/h (0 Bft) W 270 0 min -3,3 C -0,7 C 0,0 km/h (0 Bft)
14.01.2016 19:35 -0,6 C 22,8 C -0,4 C -0,6 C -0,6 C 0,0 C 81 % 90 % 0 % 1007,4 hPa 0,0 l/m 0,0 km/h (0 Bft) S-SO 157 0 min -3,4 C -0,6 C 0,0 km/h (0 Bft)
14.01.2016 19:40 -0,5 C 22,8 C -0,3 C -0,5 C -0,6 C 0,0 C 81 % 90 % 0 % 1007,4 hPa 0,0 l/m 0,0 km/h (0 Bft) W-NW 292 0 min -3,3 C -0,6 C 0,0 km/h (0 Bft)
14.01.2016 19:45 -0,5 C 22,8 C -0,3 C -0,5 C -0,6 C 0,0 C 81 % 90 % 0 % 1007,4 hPa 0,0 l/m 0,0 km/h (0 Bft) W 270 0 min -3,3 C -0,6 C 0,0 km/h (0 Bft)
14.01.2016 19:50 -0,5 C 22,8 C -0,3 C -0,5 C -0,5 C 0,0 C 81 % 89 % 0 % 1007,5 hPa 0,0 l/m 0,0 km/h (0 Bft) W-NW 292 0 min -3,3 C -0,5 C 0,0 km/h (0 Bft)
14.01.2016 19:55 -0,5 C 22,8 C -0,3 C -0,4 C -0,4 C 0,1 C 81 % 89 % 0 % 1007,5 hPa 0,0 l/m 0,0 km/h (0 Bft) NW 315 0 min -3,3 C -0,4 C 0,0 km/h (0 Bft)
14.01.2016 20:00 -0,5 C 22,7 C -0,3 C -0,5 C -0,6 C 0,0 C 81 % 90 % 0 % 1007,5 hPa 0,0 l/m 0,0 km/h (0 Bft) NW 315 0 min -3,3 C -0,6 C 0,0 km/h (0 Bft)
14.01.2016 20:05 -0,7 C 22,7 C -0,3 C -0,6 C -0,6 C 0,1 C 81 % 90 % 0 % 1007,5 hPa 0,0 l/m 0,0 km/h (0 Bft) NW 315 0 min -3,5 C -0,6 C 0,0 km/h (0 Bft)
14.01.2016 20:10 -0,7 C 22,7 C -0,3 C -0,6 C -0,6 C 0,1 C 81 % 90 % 0 % 1007,4 hPa 0,0 l/m 0,0 km/h (0 Bft) N-NO 22 0 min -3,5 C -0,6 C 0,0 km/h (0 Bft)
14.01.2016 20:15 -0,7 C 22,7 C -0,4 C -0,6 C -0,6 C 0,1 C 81 % 90 % 0 % 1007,4 hPa 0,0 l/m 0,0 km/h (0 Bft) NW 315 0 min -3,5 C -0,6 C 0,0 km/h (0 Bft)
14.01.2016 20:20 -0,8 C 22,7 C -0,3 C -0,6 C -0,6 C 0,2 C 81 % 90 % 0 % 1007,4 hPa 0,0 l/m 0,0 km/h (0 Bft) NO 45 0 min -3,6 C -0,6 C 0,0 km/h (0 Bft)
14.01.2016 20:25 -0,8 C 22,7 C -0,3 C -0,6 C -0,6 C 0,2 C 81 % 90 % 0 % 1007,4 hPa 0,0 l/m 0,0 km/h (0 Bft) NO 45 0 min -3,6 C -0,6 C 0,0 km/h (0 Bft)
14.01.2016 20:30 -0,8 C 22,7 C -0,3 C -0,7 C -0,7 C 0,1 C 81 % 89 % 0 % 1006,8 hPa 0,0 l/m 0,2 km/h (0 Bft) W-SW 247 0 min -3,6 C -0,7 C 0,0 km/h (0 Bft)
14.01.2016 20:35 -0,8 C 22,7 C -0,3 C -0,6 C -0,6 C 0,2 C 82 % 90 % 0 % 1006,8 hPa 0,0 l/m 0,5 km/h (0 Bft) W-SW 247 0 min -3,5 C -0,6 C 0,0 km/h (0 Bft)
14.01.2016 20:40 -0,7 C 22,7 C -0,4 C -0,7 C -0,7 C 0,0 C 82 % 90 % 0 % 1006,8 hPa 0,0 l/m 0,3 km/h (0 Bft) W 270 0 min -3,4 C -0,7 C 0,0 km/h (0 Bft)
14.01.2016 20:45 -0,8 C 22,7 C -0,5 C -0,8 C -0,8 C 0,0 C 81 % 89 % 0 % 1006,8 hPa 0,0 l/m 0,0 km/h (0 Bft) W 270 0 min -3,6 C -0,8 C 0,0 km/h (0 Bft)
14.01.2016 20:50 -0,9 C 22,7 C -0,5 C -1,0 C -1,1 C 0,0 C 82 % 90 % 0 % 1006,9 hPa 0,0 l/m 0,0 km/h (0 Bft) NO 45 0 min -3,6 C -1,1 C 0,0 km/h (0 Bft)
14.01.2016 20:55 -0,9 C 22,7 C -0,7 C -1,0 C -1,2 C 0,0 C 82 % 90 % 0 % 1006,9 hPa 0,0 l/m 0,0 km/h (0 Bft) O-NO 67 0 min -3,6 C -1,2 C 0,0 km/h (0 Bft)
14.01.2016 21:00 -0,9 C 22,7 C -0,8 C -1,0 C -1,3 C 0,0 C 82 % 90 % 0 % 1006,9 hPa 0,0 l/m 0,0 km/h (0 Bft) W-SW 247 0 min -3,6 C -1,3 C 0,0 km/h (0 Bft)
14.01.2016 21:05 -0,9 C 22,7 C -0,8 C -1,0 C -1,2 C 0,0 C 82 % 90 % 0 % 1006,9 hPa 0,0 l/m 0,0 km/h (0 Bft) W-SW 247 0 min -3,6 C -1,2 C 0,0 km/h (0 Bft)
14.01.2016 21:10 -0,9 C 22,7 C -0,5 C -0,9 C -1,0 C 0,0 C 82 % 89 % 0 % 1006,8 hPa 0,0 l/m 0,0 km/h (0 Bft) SW 225 0 min -3,6 C -1,0 C 0,0 km/h (0 Bft)
14.01.2016 21:15 -0,9 C 22,7 C -0,5 C -0,9 C -1,0 C 0,0 C 82 % 89 % 0 % 1006,8 hPa 0,0 l/m 0,0 km/h (0 Bft) O-NO 67 0 min -3,6 C -1,0 C 0,0 km/h (0 Bft)
14.01.2016 21:20 -1,1 C 22,7 C -0,6 C -0,8 C -0,8 C 0,3 C 82 % 89 % 0 % 1006,8 hPa 0,0 l/m 0,0 km/h (0 Bft) W-NW 292 0 min -3,8 C -0,8 C 0,0 km/h (0 Bft)
14.01.2016 21:25 -1,1 C 22,7 C -0,5 C -0,7 C -0,7 C 0,4 C 82 % 89 % 0 % 1006,8 hPa 0,0 l/m 0,3 km/h (0 Bft) N-NO 22 0 min -3,8 C -0,7 C 1,6 km/h (1 Bft)
14.01.2016 21:30 -0,9 C 22,7 C -0,3 C -0,7 C -0,7 C 0,2 C 82 % 89 % 0 % 1006,9 hPa 0,0 l/m 0,3 km/h (0 Bft) N-NO 22 0 min -3,6 C -0,7 C 0,0 km/h (0 Bft)
14.01.2016 21:35 -0,9 C 22,7 C -0,4 C -0,6 C -0,6 C 0,3 C 83 % 89 % 0 % 1006,9 hPa 0,0 l/m 0,2 km/h (0 Bft) N-NO 22 0 min -3,4 C -0,6 C 0,0 km/h (0 Bft)
14.01.2016 21:41 -0,9 C 22,7 C -0,3 C -0,5 C -0,5 C 0,4 C 83 % 89 % 0 % 1006,9 hPa 0,0 l/m 0,0 km/h (0 Bft) N 0 0 min -3,4 C -0,5 C 0,0 km/h (0 Bft)
14.01.2016 21:50 -0,9 C 22,7 C -0,1 C -0,2 C -0,2 C 0,7 C 83 % 89 % 0 % 1006,6 hPa 0,0 l/m 0,0 km/h (0 Bft) O-NO 67 0 min -3,4 C -0,2 C 0,0 km/h (0 Bft)
14.01.2016 21:55 -0,9 C 22,7 C -0,1 C -0,2 C -0,2 C 0,7 C 83 % 89 % 0 % 1006,6 hPa 0,0 l/m 0,0 km/h (0 Bft) N-NO 22 0 min -3,4 C -0,2 C 0,0 km/h (0 Bft)
14.01.2016 22:00 -0,7 C 22,7 C 0,0 C -0,1 C -0,1 C 0,6 C 83 % 89 % 0 % 1006,6 hPa 0,0 l/m 0,2 km/h (0 Bft) S 180 0 min -3,2 C -0,1 C 0,0 km/h (0 Bft)
14.01.2016 22:05 -0,8 C 22,7 C 0,0 C 0,0 C 0,0 C 0,8 C 83 % 89 % 0 % 1006,6 hPa 0,0 l/m 0,2 km/h (0 Bft) SW 225 0 min -3,3 C 0,0 C 0,0 km/h (0 Bft)
14.01.2016 22:10 -0,8 C 22,7 C 0,0 C -0,1 C -0,1 C 0,7 C 83 % 89 % 0 % 1006,8 hPa 0,0 l/m 0,2 km/h (0 Bft) N-NO 22 0 min -3,3 C -0,1 C 0,0 km/h (0 Bft)
14.01.2016 22:15 -0,7 C 22,7 C 0,1 C -0,1 C -0,1 C 0,6 C 83 % 89 % 0 % 1006,8 hPa 0,0 l/m 0,0 km/h (0 Bft) N-NO 22 0 min -3,2 C -0,1 C 0,0 km/h (0 Bft)
14.01.2016 22:20 -0,7 C 22,7 C -0,1 C -0,1 C -0,1 C 0,6 C 83 % 89 % 0 % 1006,8 hPa 0,0 l/m 0,0 km/h (0 Bft) N-NW 337 0 min -3,2 C -0,1 C 0,0 km/h (0 Bft)
14.01.2016 22:25 -0,7 C 22,7 C -0,1 C -0,1 C -0,1 C 0,6 C 83 % 89 % 0 % 1006,8 hPa 0,0 l/m 0,0 km/h (0 Bft) NW 315 0 min -3,2 C -0,1 C 0,0 km/h (0 Bft)
14.01.2016 22:30 -0,5 C 22,7 C -0,1 C -0,1 C -0,1 C 0,4 C 82 % 90 % 0 % 1006,2 hPa 0,0 l/m 0,3 km/h (0 Bft) SW 225 0 min -3,2 C -0,1 C 2,7 km/h (1 Bft)
14.01.2016 22:35 -0,5 C 22,7 C 0,0 C -0,1 C -0,1 C 0,4 C 82 % 90 % 0 % 1006,2 hPa 0,0 l/m 0,3 km/h (0 Bft) W 270 0 min -3,2 C -0,1 C 0,0 km/h (0 Bft)
14.01.2016 22:40 -0,5 C 22,7 C 0,2 C 0,2 C 0,2 C 0,7 C 83 % 89 % 0 % 1006,2 hPa 0,0 l/m 1,3 km/h (1 Bft) S-SO 157 0 min -3,0 C 0,2 C 2,3 km/h (1 Bft)
14.01.2016 22:45 -0,3 C 22,6 C 0,3 C 0,3 C 0,3 C 0,6 C 82 % 90 % 0 % 1006,2 hPa 0,0 l/m 1,3 km/h (1 Bft) W-SW 247 0 min -3,0 C 0,3 C 1,6 km/h (1 Bft)
14.01.2016 22:50 -0,2 C 22,6 C 0,2 C 0,3 C 0,3 C 0,5 C 82 % 90 % 0 % 1006,4 hPa 0,0 l/m 0,8 km/h (0 Bft) NW 315 0 min -2,9 C 0,3 C 0,0 km/h (0 Bft)
14.01.2016 22:55 -0,1 C 22,6 C 0,3 C 0,2 C 0,2 C 0,3 C 82 % 90 % 0 % 1006,4 hPa 0,0 l/m 0,3 km/h (0 Bft) SW 225 0 min -2,8 C 0,2 C 0,0 km/h (0 Bft)
14.01.2016 23:00 -0,3 C 22,6 C 0,3 C 0,1 C 0,1 C 0,4 C 82 % 90 % 0 % 1006,4 hPa 0,0 l/m 0,3 km/h (0 Bft) W 270 0 min -3,0 C 0,1 C 0,0 km/h (0 Bft)
14.01.2016 23:05 -0,1 C 22,6 C 0,3 C 0,2 C 0,2 C 0,3 C 82 % 90 % 0 % 1006,4 hPa 0,0 l/m 1,4 km/h (1 Bft) SW 225 0 min -2,8 C 0,2 C 5,5 km/h (1 Bft)
14.01.2016 23:10 -0,1 C 22,6 C 0,6 C -0,3 C -0,8 C 0,0 C 83 % 90 % 0 % 1006,4 hPa 0,0 l/m 4,5 km/h (1 Bft) SW 225 0 min -2,6 C -0,8 C 4,5 km/h (1 Bft)
14.01.2016 23:15 -0,2 C 22,6 C 0,7 C -0,4 C -0,7 C 0,0 C 84 % 89 % 0 % 1006,4 hPa 0,0 l/m 4,5 km/h (1 Bft) SO 135 0 min -2,6 C -0,7 C 3,1 km/h (1 Bft)
14.01.2016 23:20 -0,1 C 22,7 C 0,8 C 0,6 C 0,6 C 0,7 C 84 % 89 % 0 % 1006,4 hPa 0,0 l/m 2,6 km/h (1 Bft) SW 225 0 min -2,5 C 0,6 C 0,0 km/h (0 Bft)
14.01.2016 23:25 -0,1 C 22,7 C 0,8 C 0,6 C 0,6 C 0,7 C 84 % 89 % 0 % 1006,4 hPa 0,0 l/m 1,9 km/h (1 Bft) W-SW 247 0 min -2,5 C 0,6 C 2,4 km/h (1 Bft)
14.01.2016 23:30 -0,1 C 22,7 C 0,8 C 0,6 C 0,6 C 0,7 C 84 % 89 % 0 % 1006,3 hPa 0,0 l/m 1,3 km/h (1 Bft) S-SW 202 0 min -2,5 C 0,6 C 2,4 km/h (1 Bft)
14.01.2016 23:35 -0,1 C 22,7 C 0,8 C 0,5 C 0,5 C 0,6 C 84 % 89 % 0 % 1006,3 hPa 0,0 l/m 2,3 km/h (1 Bft) S-SO 157 0 min -2,5 C 0,5 C 7,4 km/h (2 Bft)
14.01.2016 23:40 -0,3 C 22,8 C 0,8 C -0,4 C -0,6 C 0,0 C 85 % 89 % 0 % 1006,3 hPa 0,0 l/m 3,9 km/h (1 Bft) O-SO 112 0 min -2,5 C -0,6 C 0,0 km/h (0 Bft)
14.01.2016 23:45 -0,3 C 22,8 C 0,7 C -0,1 C -0,1 C 0,2 C 85 % 89 % 0 % 1006,3 hPa 0,0 l/m 3,1 km/h (1 Bft) W-SW 247 0 min -2,5 C -0,1 C 0,0 km/h (0 Bft)
14.01.2016 23:50 -0,4 C 22,8 C 0,6 C 0,3 C 0,3 C 0,7 C 85 % 89 % 0 % 1006,5 hPa 0,0 l/m 1,0 km/h (0 Bft) W-SW 247 0 min -2,6 C 0,3 C 0,0 km/h (0 Bft)
14.01.2016 23:55 -0,4 C 22,9 C 0,7 C 0,2 C 0,2 C 0,6 C 85 % 89 % 0 % 1006,5 hPa 0,0 l/m 1,1 km/h (1 Bft) SW 225 0 min -2,6 C 0,2 C 1,9 km/h (1 Bft)
_ Min-Zeit 00:00 11:35 21:00 00:00 04:45 01:50 14:30 11:00 00:00 22:30 - 00:10 - - - 21:20 09:50 00:00
Minimum _ -1,7 C 22,4 C -0,8 C -1,3 C -1,6 C 0,0 C 69 % 75 % 0 % 1006,2 hPa - 0,0 km/h (0 Bft) - - - -3,8 C -4,3 C 0,0 km/h (0 Bft)
_ Max-Zeit 14:25 00:00 14:25 14:20 14:20 14:20 02:00 17:50 11:55 00:10 02:25 09:55 - - 08:20 14:15 14:20 12:50
Maximum _ 4,7 C 23,0 C 3,7 C 9,0 C 9,0 C 4,4 C 90 % 90 % 100 % 1015,1 hPa 0,7 l/m 8,0 km/h
SW (2 Bft)
- - 5 min -0,0 C 9,0 C 17,7 km/h
SO (3 Bft)
Durchschnitt _ 0,7 C 22,7 C 0,9 C 1,1 C 0,8 C 0,5 C 82 % 82 % 8 % 1011,1 hPa #0,7 l/m 2,6 km/h (1 Bft) S - #55 min. -2,0 C 0,5 C 3,5 km/h (1 Bft)
2016 www.wetterstation-wechselburg.de